Content
SEND FEEDBACK

Daily
Averages
Monthly
Summary
United States of America

OROVILLE, CALIFORNIA


Home > North America > United States > California
Elevation: 199 feet     Latitude: 39 30N     Longitude: 121 37W

WEATHER
 
SELECT A DAY
Number of Records: 152,391;   Date Range: 6/17/98 - 8/12/14
 
SHARE

PRINT THIS DATA

[ ← Previous Day ]
WEATHER ALMANAC - JULY 21, 2013
[ Next Day → ]
[ °C ]   °F
Weather ElementAverageHighLow
Temperature84.3 °F97 °F (2:53 pm)70 °F (4:53 am)
Dewpoint56.9 °F61 °F (1:53 pm)50 °F (11:53 pm)
Humidity40.6 %59 % (6:53 am)26 % (6:53 pm)
Barometer29.74 in29.79 in (11:53 pm)29.68 in (5:53 pm)
Wind Speed7 mph17.3 mph (6:53 pm)
Weather ElementAverage
Visibility10 mi
Wind DirectionSE (130 °)

Weather ElementTotal
Precipitation---
Cooling Degree Days18.5 (Base 65)
Growing Degree Days33.5 (Base 50)
Averaged from 23 records on July 21, 2013
WEATHER CONDITIONS BREAKOUT
WIND DIRECTION BREAKOUT
WEATHER BY HOUR - JULY 21, 2013
[ °C ]   °F
Local TimeTemperatureDewpointHumidityBarometerVisibilityWind DirectionWind SpeedGust SpeedPrecipitationEventsConditions
1:53 AM75.0 °F57.9 °F55 %29.71 in10.0 miSSE (160°)8.1 mphClear
2:53 AM73.9 °F55.9 °F53 %29.73 in10.0 miSSE (160°)5.8 mphClear
3:53 AM73.0 °F55.0 °F53 %29.74 in10.0 miSouth (170°)3.5 mphClear
4:53 AM70.0 °F54.0 °F57 %29.75 in10.0 miSSE (160°)5.8 mphClear
5:53 AM70.0 °F54.0 °F57 %29.76 in10.0 miCalmClear
6:53 AM70.0 °F55.0 °F59 %29.77 in10.0 miNorth (10°)3.5 mphClear
7:53 AM75.9 °F55.9 °F50 %29.77 in10.0 miNNW (330°)3.5 mphClear
8:53 AM80.1 °F55.0 °F42 %29.77 in10.0 miCalmClear
9:53 AM81.0 °F57.0 °F44 %29.77 in10.0 miWest (280°)5.8 mphClear
10:53 AM86.0 °F57.9 °F38 %29.77 in10.0 miWNW (290°)4.6 mphClear
11:53 AM89.1 °F60.1 °F38 %29.76 in10.0 miVariable3.5 mphClear
12:53 PM91.0 °F60.1 °F35 %29.76 in10.0 miCalmClear
1:53 PM93.9 °F61.0 °F33 %29.75 in10.0 miVariable4.6 mphClear
2:53 PM97.0 °F60.1 °F29 %29.73 in10.0 miSouth (180°)8.1 mphClear
3:53 PM97.0 °F61.0 °F30 %29.71 in10.0 miVariable4.6 mphClear
4:53 PM97.0 °F59.0 °F28 %29.69 in10.0 miSouth (190°)9.2 mphClear
5:53 PM97.0 °F60.1 °F29 %29.68 in10.0 miSSE (160°)13.8 mphClear
6:53 PM95.0 °F55.0 °F26 %29.69 in10.0 miSSE (160°)17.3 mphClear
7:53 PM91.0 °F57.0 °F32 %29.70 in10.0 miSE (140°)10.4 mphClear
8:53 PM88.0 °F57.9 °F36 %29.72 in10.0 miSE (140°)9.2 mphClear
9:53 PM86.0 °F55.0 °F35 %29.75 in10.0 miSE (140°)11.5 mphClear
10:53 PM82.0 °F54.0 °F38 %29.76 in10.0 miSSE (160°)11.5 mphClear
11:53 PM79.0 °F50.0 °F36 %29.79 in10.0 miSSE (160°)17.3 mphClear
Hourly data recorded from KOVE, located miles away from Oroville, California







STORIES FROM OUR PARTNERS